Location: Homewood
(41.1836°S, 175.9581°E)
Time: 11:15:39
(UTC+00:00)

COSMOS 2406 - Pass Details

Date: 18 April 2024
Orbit: 843 x 863 km, 71.0° (Epoch: 24 May)

Event Time Altitude Azimuth Distance (km) Brightness Sun altitude
Rises 17:49:40 0° 205° (SSW) 3,437 6.1 -12.1°
Reaches altitude 10° 17:52:08 10° 205° (SSW) 2,496 5.4 -11.7°
Maximum altitude 17:57:52 83° 292° (WNW) 866 3.2 -10.6°
Drops below altitude 10° 18:03:34 10° 19° (NNE) 2,474 6.0 -9.5°
Sets 18:06:00 0° 19° (NNE) 3,405 6.7 -9.1°
